• In Spain
  • List of Countries
  • For 7 days
  • Water Temperature
  • Satellite Maps
  • Weather Map
  • Weather Widgets
  • user-avatar
    Login

    Hourly Weather Korçe

    Today, 24 August, Thursday

    Time Temperature Precipitation Wind Pressure Humidity
    00:00 +14°C° 0 mm 1 mps 669 mmHg 55%
    01:00 +14°C° 0 mm 2 mps 669 mmHg 53%
    02:00 +14°C° 0 mm 2 mps 669 mmHg 54%
    03:00 +13°C° 0 mm 2 mps 669 mmHg 55%
    04:00 +13°C° 0 mm 1 mps 669 mmHg 56%
    05:00 +14°C° 0 mm 1 mps 669 mmHg 53%
    06:00 +16°C° 0 mm 1 mps 670 mmHg 49%
    07:00 +18°C° 0 mm 1 mps 670 mmHg 46%
    08:00 +21°C° 0 mm 1 mps 671 mmHg 42%
    09:00 +23°C° 0 mm 1 mps 672 mmHg 37%
    10:00 +25°C° 0 mm 1 mps 672 mmHg 33%
    11:00 +26°C° 0 mm 1 mps 672 mmHg 30%
    12:00 +26°C° 0 mm 2 mps 672 mmHg 28%
    13:00 +27°C° 0 mm 2 mps 673 mmHg 25%
    14:00 +27°C° 0 mm 2 mps 672 mmHg 26%
    15:00 +27°C° 0 mm 3 mps 672 mmHg 26%
    16:00 +27°C° 0 mm 3 mps 672 mmHg 27%
    17:00 +24°C° 0 mm 2 mps 672 mmHg 32%
    18:00 +21°C° 0 mm 2 mps 671 mmHg 37%
    19:00 +19°C° 0 mm 1 mps 671 mmHg 42%
    20:00 +18°C° 0 mm 1 mps 671 mmHg 43%
    21:00 +18°C° 0 mm 1 mps 671 mmHg 44%
    22:00 +16°C° 0 mm 1 mps 671 mmHg 45%
    23:00 +16°C° 0 mm 1 mps 671 mmHg 44%

    Tomorrow, 25 August, Friday

    Time Temperature Precipitation Wind Pressure Humidity
    00:00 +15°C° 0 mm 1 mps 671 mmHg 44%
    01:00 +15°C° 0 mm 2 mps 671 mmHg 44%
    02:00 +15°C° 0 mm 2 mps 671 mmHg 43%
    03:00 +14°C° 0 mm 2 mps 670 mmHg 42%
    04:00 +14°C° 0 mm 2 mps 670 mmHg 42%
    05:00 +16°C° 0 mm 2 mps 671 mmHg 39%
    06:00 +17°C° 0 mm 2 mps 671 mmHg 37%
    07:00 +19°C° 0 mm 2 mps 672 mmHg 34%
    08:00 +21°C° 0 mm 2 mps 672 mmHg 30%
    09:00 +24°C° 0 mm 2 mps 673 mmHg 26%
    10:00 +27°C° 0 mm 2 mps 674 mmHg 22%
    11:00 +27°C° 0 mm 2 mps 673 mmHg 20%
    12:00 +28°C° 0 mm 2 mps 673 mmHg 19%
    13:00 +29°C° 0 mm 2 mps 673 mmHg 18%
    14:00 +29°C° 0 mm 2 mps 673 mmHg 19%
    15:00 +29°C° 0 mm 2 mps 673 mmHg 20%
    16:00 +28°C° 0 mm 2 mps 672 mmHg 20%
    17:00 +26°C° 0 mm 2 mps 672 mmHg 26%
    18:00 +23°C° 0 mm 2 mps 671 mmHg 31%
    19:00 +20°C° 0 mm 1 mps 670 mmHg 36%
    20:00 +19°C° 0 mm 1 mps 670 mmHg 37%
    21:00 +18°C° 0 mm 1 mps 670 mmHg 38%
    22:00 +17°C° 0 mm 2 mps 671 mmHg 39%
    23:00 +16°C° 0 mm 2 mps 670 mmHg 39%

    Day after tomorrow, 26 August, Saturday

    Time Temperature Precipitation Wind Pressure Humidity
    00:00 +16°C° 0 mm 2 mps 670 mmHg 40%
    01:00 +15°C° 0 mm 2 mps 670 mmHg 40%
    02:00 +15°C° 0 mm 2 mps 670 mmHg 41%
    03:00 +15°C° 0 mm 2 mps 669 mmHg 42%
    04:00 +14°C° 0 mm 2 mps 669 mmHg 43%
    05:00 +16°C° 0 mm 2 mps 670 mmHg 41%
    06:00 +18°C° 0 mm 2 mps 670 mmHg 39%
    07:00 +19°C° 0 mm 2 mps 671 mmHg 37%
    08:00 +23°C° 0 mm 2 mps 671 mmHg 33%
    09:00 +25°C° 0 mm 1 mps 672 mmHg 28%
    10:00 +27°C° 0 mm 1 mps 673 mmHg 23%
    11:00 +28°C° 0 mm 2 mps 672 mmHg 22%
    12:00 +29°C° 0 mm 2 mps 672 mmHg 21%
    13:00 +30°C° 0 mm 2 mps 672 mmHg 20%
    14:00 +30°C° 0 mm 2 mps 672 mmHg 21%
    15:00 +29°C° 0 mm 2 mps 671 mmHg 22%
    16:00 +29°C° 0 mm 2 mps 671 mmHg 22%
    17:00 +26°C° 0 mm 2 mps 670 mmHg 28%
    18:00 +23°C° 0 mm 2 mps 670 mmHg 34%
    19:00 +20°C° 0 mm 1 mps 669 mmHg 39%
    20:00 +20°C° 0 mm 1 mps 669 mmHg 41%
    21:00 +19°C° 0 mm 1 mps 669 mmHg 42%
    22:00 +18°C° 0 mm 1 mps 669 mmHg 44%
    23:00 +18°C° 0 mm 1 mps 669 mmHg 45%

    27 August, Sunday

    Time Temperature Precipitation Wind Pressure Humidity
    00:00 +18°C° 0 mm 1 mps 669 mmHg 45%
    01:00 +16°C° 0 mm 1 mps 669 mmHg 46%
    02:00 +16°C° 0 mm 1 mps 668 mmHg 47%
    03:00 +16°C° 0 mm 1 mps 668 mmHg 47%
    04:00 +16°C° 0 mm 1 mps 668 mmHg 48%
    05:00 +18°C° 0 mm 1 mps 669 mmHg 45%
    06:00 +20°C° 0 mm 1 mps 669 mmHg 42%
    07:00 +22°C° 0 mm 1 mps 670 mmHg 39%
    08:00 +24°C° 0 mm 1 mps 670 mmHg 33%
    09:00 +26°C° 0 mm 1 mps 670 mmHg 28%
    10:00 +29°C° 0 mm 1 mps 671 mmHg 23%
    11:00 +30°C° 0 mm 2 mps 671 mmHg 22%
    12:00 +30°C° 0 mm 2 mps 671 mmHg 20%
    13:00 +31°C° 0 mm 2 mps 670 mmHg 19%
    14:00 +31°C° 0 mm 3 mps 670 mmHg 20%
    15:00 +30°C° 0 mm 3 mps 670 mmHg 21%
    16:00 +30°C° 0 mm 3 mps 669 mmHg 22%
    17:00 +27°C° 0 mm 2 mps 669 mmHg 27%
    18:00 +24°C° 0 mm 2 mps 668 mmHg 32%
    19:00 +21°C° 0 mm 1 mps 668 mmHg 37%
    20:00 +21°C° 0 mm 1 mps 668 mmHg 38%
    21:00 +20°C° 0 mm 1 mps 668 mmHg 38%
    22:00 +19°C° 0 mm 1 mps 668 mmHg 39%
    23:00 +19°C° 0 mm 1 mps 668 mmHg 39%

    28 August, Monday

    Time Temperature Precipitation Wind Pressure Humidity
    00:00 +19°C° 0 mm 1 mps 668 mmHg 39%
    01:00 +19°C° 0 mm 1 mps 667 mmHg 40%
    02:00 +18°C° 0 mm 1 mps 667 mmHg 40%
    03:00 +18°C° 0 mm 1 mps 667 mmHg 40%
    04:00 +18°C° 0 mm 1 mps 667 mmHg 40%
    05:00 +19°C° 0 mm 1 mps 667 mmHg 38%
    06:00 +21°C° 0 mm 1 mps 668 mmHg 36%
    07:00 +23°C° 0 mm 1 mps 668 mmHg 34%
    08:00 +25°C° 0 mm 1 mps 669 mmHg 30%
    09:00 +27°C° 0 mm 1 mps 669 mmHg 25%
    10:00 +30°C° 0 mm 1 mps 670 mmHg 21%
    11:00 +31°C° 0 mm 2 mps 669 mmHg 20%
    12:00 +31°C° 0 mm 2 mps 669 mmHg 20%
    13:00 +33°C° 0 mm 3 mps 669 mmHg 19%
    14:00 +31°C° 0 mm 3 mps 669 mmHg 20%
    15:00 +31°C° 0 mm 3 mps 668 mmHg 21%
    16:00 +30°C° 0 mm 3 mps 668 mmHg 22%
    17:00 +27°C° 0 mm 2 mps 668 mmHg 27%
    18:00 +25°C° 0 mm 2 mps 667 mmHg 33%
    19:00 +22°C° 0 mm 1 mps 667 mmHg 38%
    20:00 +21°C° 0 mm 1 mps 666 mmHg 39%
    21:00 +21°C° 0 mm 1 mps 666 mmHg 39%
    22:00 +20°C° 0 mm 1 mps 666 mmHg 40%
    23:00 +20°C° 0 mm 1 mps 666 mmHg 40%

    29 August, Tuesday

    Time Temperature Precipitation Wind Pressure Humidity
    00:00 +19°C° 0 mm 1 mps 666 mmHg 40%
    01:00 +19°C° 0 mm 1 mps 666 mmHg 39%
    02:00 +19°C° 0 mm 1 mps 666 mmHg 40%
    03:00 +19°C° 0 mm 1 mps 666 mmHg 40%
    04:00 +18°C° 0 mm 1 mps 666 mmHg 40%
    05:00 +19°C° 0 mm 2 mps 666 mmHg 38%
    06:00 +21°C° 0 mm 2 mps 667 mmHg 36%
    07:00 +23°C° 0 mm 2 mps 668 mmHg 34%
    08:00 +25°C° 0 mm 2 mps 668 mmHg 30%
    09:00 +28°C° 0 mm 2 mps 669 mmHg 26%
    10:00 +30°C° 0 mm 2 mps 669 mmHg 22%
    11:00 +31°C° 0 mm 2 mps 669 mmHg 21%
    12:00 +31°C° 0 mm 2 mps 669 mmHg 20%
    13:00 +32°C° 0 mm 2 mps 669 mmHg 20%
    14:00 +33°C° 0 mm 3 mps 668 mmHg 20%
    15:00 +31°C° 0 mm 3 mps 668 mmHg 21%
    16:00 +31°C° 0 mm 3 mps 668 mmHg 22%
    17:00 +28°C° 0 mm 2 mps 668 mmHg 27%
    18:00 +26°C° 0 mm 2 mps 667 mmHg 32%
    19:00 +23°C° 0 mm 1 mps 667 mmHg 37%
    20:00 +22°C° 0 mm 1 mps 667 mmHg 38%
    21:00 +22°C° 0 mm 1 mps 667 mmHg 39%
    22:00 +20°C° 0 mm 2 mps 667 mmHg 41%
    23:00 +20°C° 0 mm 2 mps 667 mmHg 41%
    Show more